{"data":{"norad_id":60909,"epoch":"2026-09-20T23:46:14.760768Z","epoch_age_seconds":146031,"freshness":"FRESH","line1":"1 60909U 24154G   26263.99044862  .00001975  00000+0  21143-4 0  9997","line2":"2 60909  53.1591 248.8628 0000952  86.8484 273.2643 15.69725981119182","mean_motion":15.69725981,"eccentricity":9.52e-5,"inclination_deg":53.1591,"raan_deg":248.8628,"arg_perigee_deg":86.8484,"mean_anomaly_deg":273.2643,"bstar":2.1143e-5,"rev_number":11918,"period_min":91.735756267641,"perigee_km":359.03957902753,"apogee_km":360.3224595784,"semimajor_km":6737.818019303,"source":"CELESTRAK","updated_at":"2026-09-22T09:00:49.283746Z"}}